Regional Weather Roundup
Issued by NWS

Home | Current Version | Previous Version | Graphics & Text | Print | Product List | Glossary On
Versions: 1 2 3 4 5 6 7 8 9 10 11 12 13 14 15 16 17 18 19 20 21 22 23 24 25 26 27 28 29 30 31 32 33 34 35 36 37 38 39 40 41 42 43 44 45 46 47 48 49 50
823
ASUS45 KBOU 191607
RWRCO

WEATHER ROUNDUP FOR COLORADO
NATIONAL WEATHER SERVICE DENVER/BOULDER CO
1000 AM MDT SAT AUG 19 2017

NOTE: "FAIR" INDICATES FEW OR NO CLOUDS BELOW 12000 FEET WITH NO
SIGNIFICANT WEATHER AND/OR OBSTRUCTIONS TO VISIBILITY.

COZ001>005-013-030-031-191700-
...NORTHWEST COLORADO...

CITY           SKY/WX    TMP DP  RH WIND       PRES   REMARKS
CRAIG          FAIR      70  39  32 N5        30.25S
HAYDEN         FAIR      69  37  30 CALM      30.28S
MEEKER         FAIR      66  39  37 CALM      30.26S
RABBIT EARS PA FAIR      57  32  38 W8        30.53S
STEAMBOAT SPGS FAIR      63  40  41 CALM      30.28F
WALDEN         FAIR      61  34  36 W3        30.36S
$$

COZ006>008-011-191700-
...WEST CENTRAL VALLEYS...

CITY           SKY/WX    TMP DP  RH WIND       PRES   REMARKS
GRAND JUNCTION FAIR      77  38  24 SE10      30.15S
MONTROSE       FAIR      74  39  28 CALM      30.22F
EAGLE          FAIR      63  32  31 VRB3      30.31F
RIFLE          FAIR      69  40  34 N5        30.21F
DELTA          FAIR      74  35  23 CALM      30.20S
NUCLA          FAIR      73  30  20 W6        30.26S
$$

COZ017>023-064>068-191700-
...SOUTHWEST COLORADO...

CITY           SKY/WX    TMP DP  RH WIND       PRES   REMARKS
DURANGO        FAIR      73  37  27 CALM      30.30F
CORTEZ         FAIR      75  40  28 CALM      30.23S
PAGOSA SPRINGS FAIR      70  35  27 SW3       30.38S
TELLURIDE      FAIR      67  33  28 CALM      30.48S
WOLF CREEK PAS FAIR      54  32  43 SW5       30.72S
$$

COZ009-010-012-014-032>034-037-058>063-191700-
...CENTRAL COLORADO...

CITY           SKY/WX    TMP DP  RH WIND       PRES   REMARKS
ASPEN          FAIR      69  35  28 N6        30.34S
BUENA VISTA    FAIR      64  33  31 CALM      30.38F
COPPER MTN     FAIR      59  28  31 W13G22    30.66R
BERTHOUD PASS  FAIR      48  43  81 NW32G39   30.64F
COTTONWOOD PAS FAIR      64  32  29 E6        30.51S
GUNNISON       FAIR      58  38  47 CALM      30.41
KREMMLING      FAIR      63  37  39 N5        30.35F
LEADVILLE      FAIR      58  31  35 VRB3      30.47F
MONARCH PASS   FAIR      54  30  40 SW14      30.77S
SALIDA         FAIR      67  41  39 N5        30.42F
SUNLIGHT       FAIR      59  32  36 W6        30.60R
WILKERSON PASS FAIR      55  32  41 SW7       30.63S
$$

COZ069>075-191700-
...SAN LUIS VALLEY/SANGRE DE CRISTO MOUNTAINS...

CITY           SKY/WX    TMP DP  RH WIND       PRES   REMARKS
ALAMOSA        FAIR      66  41  40 CALM      30.37S
DEL NORTE      FAIR      66  39  36 E5        30.40S
LA VETA PASS   NOT AVBL
SAGUACHE       FAIR      66  41  39 CALM      30.40S
$$

COZ035-036-038>040-191700-
...NORTHERN COLORADO FRONT RANGE...

CITY           SKY/WX    TMP DP  RH WIND       PRES   REMARKS
DENVER INTL AP FAIR      82  40  22 SW6       30.12S
DMNS CITY PARK   N/A     80  43  27 SE6       30.11F
AURORA         MOSUNNY   80  46  30 SW10      30.14S
FRONT RANGE AP FAIR      82  41  23 W10       30.13S
ERIE MUNI ARPT FAIR      80  38  22 SE3       30.14F
BOULDER MUN AP FAIR      79  46  31 NE5       30.10S
CENTENNIAL     FAIR      80  40  23 SW13      30.16S
BROOMFIELD     MOSUNNY   77  45  31 VRB5      30.14S
FORT COLLINS   FAIR      78  49  35 CALM      30.09F
LONGMONT       FAIR      80  46  29 E5        30.10S
$$

COZ041-046-047-076>085-087-088-191700-
...PIKES PEAK/PALMER DIVIDE AND SOUTHERN FOOTHILLS...

CITY           SKY/WX    TMP DP  RH WIND       PRES   REMARKS
COLO. SPRINGS  PTSUNNY   81  49  32 VRB3      30.21S
A. F. ACADEMY  FAIR      79  40  24 NE5       30.22S
SCHRIEVER AFB  FAIR      79  43  27 NW7       30.21R
CHEYENNE MTN   FAIR      78  36  22 CALM      30.21S
ELLICOTT       NOT AVBL
FALCON         FAIR      80  33  18 NW6       30.26S
FORT CARSON    FAIR      75  52  44 S3        30.18R
LIMON          FAIR      75  60  59 S5        30.13F
MONUMENT HILL  FAIR      77  41  27 W3        30.28S
CANON CITY     SUNNY     82  48  30 W17       30.15S
WALSENBURG     NOT AVBL
TRINIDAD       FAIR      80  48  32 CALM      30.19S
$$

COZ042>045-048>051-090-091-191700-
...NORTHEAST COLORADO...

CITY           SKY/WX    TMP DP  RH WIND       PRES   REMARKS
GREELEY ARPT   FAIR      73  54  51 W3        30.08S
AKRON          FAIR      80  52  37 SW8       30.06S
BURLINGTON     FAIR      82  65  56 S15G23    30.06R
WRAY           NOT AVBL
YUMA           FAIR      79  52  38 SW9       30.03S
STERLING       FAIR      77  61  57 SW8       30.01S
HOLYOKE        FAIR      79  64  61 SW8       30.01F
FORT MORGAN    FAIR      76  51  42 SW10      30.06S
$$

COZ086-089-092>099-191700-
...SOUTHEAST COLORADO...

CITY           SKY/WX    TMP DP  RH WIND       PRES   REMARKS
PUEBLO         FAIR      75  51  43 S5        30.10F
LA JUNTA       FAIR      77  58  51 SW7       30.08F
LAMAR          FAIR      79  59  50 W7        30.04S
SPRINGFIELD      N/A     85  60  42 SW12      30.10R
$$




USA.gov is the U.S. government's official web portal to all federal, state and local government web resources and services.